Regional Weather Roundup
Issued by NWS

Home | Current Version | Previous Version | Graphics & Text | Print | Product List | Glossary On
Versions: 1 2 3 4 5 6 7 8 9 10 11 12 13 14 15 16 17 18 19 20 21 22 23 24 25 26 27 28 29 30 31 32 33 34 35 36 37 38 39 40 41 42 43 44 45 46 47 48 49 50
000
ASUS43 KIND 281159
RWRIN

WEATHER ROUNDUP FOR INDIANA
NATIONAL WEATHER SERVICE INDIANAPOLIS IN
800 AM EDT FRI AUG 28 2015

NOTE: "FAIR" INDICATES FEW OR NO CLOUDS BELOW 12,000 FEET WITH NO
SIGNIFICANT WEATHER AND/OR OBSTRUCTIONS TO VISIBILITY.

* - STATION DOES NOT REPORT WEATHER SUCH AS PRECIPITATION OR FOG.

+ - STATION NOT QUALITY CONTROLLED BY THE NATIONAL WEATHER SERVICE.
    USE DATA WITH CAUTION...ESPECIALLY DEWPOINT AND RELATIVE
    HUMIDITY OBSERVATIONS.

INZ001>003-010>013-019-020-281300-
NORTHWEST INDIANA

CITY           SKY/WX    TMP DP  RH WIND       PRES   REMARKS
GARY /AIRPORT/ PTCLDY    59  55  88 SE6       30.14R
KNOX *+        CLEAR     54  54 100 SE5       30.15R
MONTICELLO +   CLEAR     58  57  97 SE3       30.15R
6HR MIN TEMP:  58; 6HR MAX TEMP:  62;

RENSSELAER +   CLEAR     55  55 100 CALM      30.15R

$$

LMZ046-743>745-281300-
SOUTHERN LAKE MICHIGAN

STATION/POSITION TIME  TEMP    WIND        PRES    WAVE
                       AIR SEA DIR/SP/G            HT
                 (UTC) (F)     (DEG/KT/KT) (MB)    (FT)
BURNS HARBOR     1100   62     170/ 11/ 16 1020.3S
MICHIGAN CITY    1100   60     120/ 10/ 12   N/A
5NW MICH CITY    1100   63 71  170/ 14/ 16   N/A     1

$$

INZ004-005-014>016-021>024-281300-
NORTH CENTRAL INDIANA

CITY           SKY/WX    TMP DP  RH WIND       PRES   REMARKS
ELKHART        CLEAR     55  55 100 E3        30.17R FOG
GOSHEN         CLEAR     57  54  89 SE6       30.17R FOG
6HR MIN TEMP:  56; 6HR MAX TEMP:  57;

SOUTH BEND     CLEAR     56  54  93 E5        30.17R FOG
6HR MIN TEMP:  54; 6HR MAX TEMP:  57;


$$

INZ006>009-017-018-025>027-281300-
NORTHEAST INDIANA

CITY           SKY/WX    TMP DP  RH WIND       PRES   REMARKS
ANGOLA *+      MOCLDY    57  55  94 CALM      30.19R
FORT WAYNE     PTCLDY    56  53  90 CALM      30.19R FOG
6HR MIN TEMP:  54; 6HR MAX TEMP:  59;


$$

INZ028-029-035-036-043>045-051>053-281300-
WEST CENTRAL INDIANA

CITY           SKY/WX    TMP DP  RH WIND       PRES   REMARKS
CRAWFORDSVL +  MOCLDY    56  56 100 SE3       30.17R
6HR MIN TEMP:  51; 6HR MAX TEMP:  56;

GREENCASTLE +  CLEAR     55  52  88 CALM      30.18R FOG
LAFAYETTE      CLEAR     58  55  90 CALM      30.16R
6HR MIN TEMP:  56; 6HR MAX TEMP:  61;

TERRE HAUTE    PTCLDY    54  53  97 CALM      30.16R FOG
6HR MIN TEMP:  53; 6HR MAX TEMP:  61;


$$

INZ030>032-037>040-046>048-054>057-064-065-281300-
CENTRAL INDIANA

CITY           SKY/WX    TMP DP  RH WIND       PRES   REMARKS
FRANKFORT +    CLEAR    N/A N/A N/A SE3       30.18S FOG
GREENWOOD *+   CLEAR     57  54  88 CALM      30.19R
INDIANAPOLIS   PTCLDY    60  56  86 SE3       30.16R
6HR MIN TEMP:  59; 6HR MAX TEMP:  64;

-EAGLE CREEK   CLEAR     58  56  93 CALM      30.17R
6HR MIN TEMP:  57; 6HR MAX TEMP:  65;

KOKOMO *+      CLEAR     55  52  88 SE6       30.18R
6HR MIN TEMP:  54; 6HR MAX TEMP:  57;

MT COMFORT *+  CLEAR     52 N/A N/A CALM      30.19R
SHELBYVILLE    CLEAR     56  53  90 NE3       30.18R FOG
6HR MIN TEMP:  54; 6HR MAX TEMP:  58;


$$

INZ033-034-041-042-049-050-058-059-281300-
EAST CENTRAL INDIANA

CITY           SKY/WX    TMP DP  RH WIND       PRES   REMARKS
MUNCIE         PTCLDY    56  55  97 CALM      30.19R
6HR MIN TEMP:  52; 6HR MAX TEMP:  56;


$$

INZ060-061-067>069-081>083-085>088-281300-
SOUTHWEST INDIANA

CITY           SKY/WX    TMP DP  RH WIND       PRES   REMARKS
EVANSVILLE     CLEAR     58  56  93 NE3       30.16R FOG
6HR MIN TEMP:  57; 6HR MAX TEMP:  64;

HUNTINGBURG *+ CLEAR     54  52  94 CALM      30.16R
6HR MIN TEMP:  54; 6HR MAX TEMP:  61;


$$

INZ062-063-066-070>080-084-089>092-281300-
SOUTH CENTRAL AND SOUTHEAST INDIANA

CITY           SKY/WX    TMP DP  RH WIND       PRES   REMARKS
BLOOMINGTON    CLEAR     55  53  93 CALM      30.17R
6HR MIN TEMP:  52; 6HR MAX TEMP:  57;

MADISON *+     CLEAR     54  52  94 NE3       30.20R
SEYMOUR +      FOG       50  50 100 CALM      30.18R VSB 1

$$



USA.gov is the U.S. government's official web portal to all federal, state and local government web resources and services.